Madison, MN

5:36 PM CST on January 23, 2017 (GMT -0600)
Madison-Lac Qui Parle County

Weather History for KDXX - November, 2012

Change the Weather History Date:

Sunday, November 4, 2012

  Actual Average (KAQP) Record (KAQP)
Temperature  
Mean Temperature 37 °F -  
Max Temperature 39 °F 43 °F 75 °F (2016)
Min Temperature 35 °F 26 °F 21 °F (1999)
Degree Days  
Heating Degree Days 28    
Moisture  
Dew Point 33 °F    
Average Humidity 88    
Maximum Humidity 93    
Minimum Humidity 81    
Precipitation  
Precipitation 0.00 in - - ()
Sea Level Pressure  
Sea Level Pressure 30.16 in    
Wind  
Wind Speed 4 mph (NNW)    
Max Wind Speed 8 mph    
Max Gust Speed -    
Visibility 8 miles    
Events      
Averages and records for this station are not official NWS values.
T = Trace of Precipitation, MM = Missing Value Source: NWS Daily Summary

Daily Weather History Graph

Daily Weather History Graph

Search for Another Location

Airport or City:

Trip Planner

Search our weather history database for the weather conditions in past years. The results will help you decide how hot, cold, wet, or windy it might be!

Date:

Astronomy

Nov. 04, 2012 Rise Set
Actual Time 7:07 AM CST 5:07 PM CST
Civil Twilight 6:37 AM CST 5:38 PM CST
Nautical Twilight 6:02 AM CST 6:13 PM CST
Astronomical Twilight 5:27 AM CST 6:47 PM CST
Moon 9:45 PM CST (11/4) 11:55 AM CST (11/4)
Length of Visible Light 11h 01m
Length of Day
10h 00m
Waning Gibbous, 72% of the Moon is Illuminated
Nov 4
Waning Gibbous
Nov 6
Last Quarter
Nov 13
New
Nov 20
First Quarter
Nov 28
Full

Hourly Weather History & Observations

Time (CST) Temp. Windchill Dew Point Humidity Pressure Visibility Wind Dir Wind Speed Gust Speed Precip Events Conditions
12:14 AM 35.6 °F 29.9 °F 32.0 °F 87% 30.19 in 10.0 mi NW 6.9 mph - N/A   Clear
12:34 AM 35.6 °F 29.9 °F 33.8 °F 93% 30.19 in 10.0 mi NW 6.9 mph - N/A   Scattered Clouds
12:53 AM 35.6 °F 29.9 °F 32.0 °F 87% 30.19 in 10.0 mi NW 6.9 mph - N/A   Overcast
1:14 AM 35.6 °F 30.7 °F 32.0 °F 87% 30.19 in 10.0 mi NW 5.8 mph - N/A   Mostly Cloudy
1:34 AM 35.6 °F 29.9 °F 32.0 °F 87% 30.20 in 10.0 mi NW 6.9 mph - N/A   Scattered Clouds
1:53 AM 35.6 °F 30.7 °F 32.0 °F 87% 30.19 in 10.0 mi NW 5.8 mph - N/A   Mostly Cloudy
1:14 AM 35.6 °F 31.7 °F 32.0 °F 87% 30.19 in 10.0 mi NW 4.6 mph - N/A   Scattered Clouds
1:33 AM 35.6 °F 31.7 °F 32.0 °F 87% 30.19 in 10.0 mi NNW 4.6 mph - N/A   Mostly Cloudy
1:53 AM 35.6 °F 32.8 °F 32.0 °F 87% 30.20 in 10.0 mi WNW 3.5 mph - N/A   Mostly Cloudy
2:14 AM 35.6 °F 30.7 °F 32.0 °F 87% 30.20 in 10.0 mi WNW 5.8 mph - N/A   Scattered Clouds
2:33 AM 35.6 °F 30.7 °F 32.0 °F 87% 30.20 in 10.0 mi NW 5.8 mph - N/A   Scattered Clouds
2:53 AM 35.6 °F 30.7 °F 32.0 °F 87% 30.20 in 10.0 mi WNW 5.8 mph - N/A   Scattered Clouds
3:14 AM 35.6 °F 31.7 °F 32.0 °F 87% 30.19 in 10.0 mi NW 4.6 mph - N/A   Scattered Clouds
3:33 AM 35.6 °F 31.7 °F 32.0 °F 87% 30.19 in 7.0 mi NNW 4.6 mph - N/A   Scattered Clouds
3:53 AM 35.6 °F 31.7 °F 32.0 °F 87% 30.19 in 10.0 mi NW 4.6 mph - N/A   Mostly Cloudy
4:14 AM 35.6 °F 32.8 °F 30.2 °F 81% 30.19 in 10.0 mi NW 3.5 mph - N/A   Overcast
4:33 AM 35.6 °F 32.8 °F 30.2 °F 81% 30.18 in 10.0 mi NW 3.5 mph - N/A   Mostly Cloudy
4:53 AM 35.6 °F 32.8 °F 32.0 °F 87% 30.19 in 10.0 mi NNW 3.5 mph - N/A   Scattered Clouds
5:14 AM 35.6 °F - 32.0 °F 87% 30.19 in 10.0 mi Calm Calm - N/A   Mostly Cloudy
5:33 AM 35.6 °F - 32.0 °F 87% 30.18 in 10.0 mi Calm Calm - N/A   Mostly Cloudy
5:54 AM 35.6 °F - 32.0 °F 87% 30.18 in 7.0 mi Calm Calm - N/A   Mostly Cloudy
6:14 AM 35.6 °F 32.8 °F 32.0 °F 87% 30.18 in 7.0 mi NW 3.5 mph - N/A   Overcast
6:33 AM 35.6 °F - 32.0 °F 87% 30.18 in 7.0 mi Calm Calm - N/A   Overcast
6:54 AM 35.6 °F - 32.0 °F 87% 30.17 in 10.0 mi Calm Calm - N/A   Mostly Cloudy
7:14 AM 35.6 °F 32.8 °F 32.0 °F 87% 30.17 in 7.0 mi NNW 3.5 mph - N/A   Scattered Clouds
7:33 AM 35.6 °F - 32.0 °F 87% 30.17 in 4.0 mi Calm Calm - N/A   Scattered Clouds
7:54 AM 35.6 °F - 33.8 °F 93% 30.18 in 2.5 mi Calm Calm - N/A   Scattered Clouds
8:14 AM 35.6 °F - 33.8 °F 93% 30.18 in 2.5 mi Calm Calm - N/A   Mist
8:33 AM 35.6 °F - 33.8 °F 93% 30.18 in 3.0 mi Calm Calm - N/A   Mist
8:54 AM 35.6 °F - 33.8 °F 93% 30.17 in 3.0 mi Calm Calm - N/A   Clear
9:14 AM 35.6 °F 32.8 °F 33.8 °F 93% 30.16 in 4.0 mi West 3.5 mph - N/A   Clear
9:33 AM 37.4 °F - 33.8 °F 87% 30.16 in 5.0 mi Calm Calm - N/A   Clear
9:54 AM 37.4 °F - 33.8 °F 87% 30.16 in 7.0 mi Calm Calm - N/A   Clear
10:14 AM 37.4 °F - 33.8 °F 87% 30.15 in 7.0 mi Calm Calm - N/A   Clear
10:33 AM 37.4 °F - 33.8 °F 87% 30.15 in 7.0 mi Calm Calm - N/A   Clear
10:54 AM 37.4 °F - 33.8 °F 87% 30.16 in 10.0 mi Calm Calm - N/A   Clear
11:14 AM 37.4 °F - 33.8 °F 87% 30.15 in 10.0 mi Calm Calm - N/A   Clear
11:33 AM 37.4 °F - 33.8 °F 87% 30.15 in 10.0 mi Calm Calm - N/A   Clear
11:54 AM 37.4 °F 33.8 °F 33.8 °F 87% 30.15 in 10.0 mi South 4.6 mph - N/A   Clear
12:13 PM 39.2 °F 35.9 °F 33.8 °F 81% 30.14 in 10.0 mi SSE 4.6 mph - N/A   Clear
12:34 PM 37.4 °F - 32.0 °F 81% 30.14 in 10.0 mi Calm Calm - N/A   Scattered Clouds
12:54 PM 37.4 °F 33.8 °F 33.8 °F 87% 30.13 in 10.0 mi SSE 4.6 mph - N/A   Scattered Clouds
1:13 PM 37.4 °F 33.8 °F 33.8 °F 87% 30.13 in 10.0 mi ESE 4.6 mph - N/A   Scattered Clouds
1:33 PM 37.4 °F - 33.8 °F 87% 30.13 in 7.0 mi Calm Calm - N/A   Scattered Clouds
1:54 PM 37.4 °F - 33.8 °F 87% 30.13 in 7.0 mi Calm Calm - N/A   Scattered Clouds
2:13 PM 37.4 °F - 33.8 °F 87% 30.12 in 7.0 mi Calm Calm - N/A   Clear
2:33 PM 37.4 °F - 33.8 °F 87% 30.12 in 7.0 mi Calm Calm - N/A   Clear
2:54 PM 37.4 °F - 33.8 °F 87% 30.12 in 7.0 mi Calm Calm - N/A   Mostly Cloudy
3:13 PM 37.4 °F - 32.0 °F 81% 30.12 in 7.0 mi Calm Calm - N/A   Overcast
3:33 PM 39.2 °F - 33.8 °F 81% 30.12 in 7.0 mi Calm Calm - N/A   Mostly Cloudy
3:54 PM 39.2 °F - 33.8 °F 81% 30.11 in 7.0 mi Calm Calm - N/A   Scattered Clouds
4:13 PM 39.2 °F - 33.8 °F 81% 30.12 in 7.0 mi Calm Calm - N/A   Scattered Clouds
4:33 PM 39.2 °F - 33.8 °F 81% 30.12 in 7.0 mi Calm Calm - N/A   Mostly Cloudy
4:54 PM 39.2 °F - 33.8 °F 81% 30.12 in 7.0 mi Calm Calm - N/A   Scattered Clouds
5:13 PM 39.2 °F - 33.8 °F 81% 30.12 in 10.0 mi Calm Calm - N/A   Scattered Clouds
5:33 PM 37.4 °F - 33.8 °F 87% 30.12 in 10.0 mi Calm Calm - N/A   Mostly Cloudy
5:54 PM 37.4 °F - 33.8 °F 87% 30.13 in 7.0 mi Calm Calm - N/A   Clear
6:13 PM 37.4 °F - 33.8 °F 87% 30.14 in 7.0 mi Calm Calm - N/A   Scattered Clouds
6:34 PM 37.4 °F 33.8 °F 35.6 °F 93% 30.14 in 4.0 mi NNE 4.6 mph - N/A   Scattered Clouds
6:54 PM 37.4 °F 34.9 °F 35.6 °F 93% 30.14 in 3.0 mi NE 3.5 mph - N/A   Mist
7:13 PM 37.4 °F 31.4 °F 35.6 °F 93% 30.14 in 4.0 mi NE 8.1 mph - N/A   Clear
7:34 PM 37.4 °F 32.1 °F 35.6 °F 93% 30.14 in 4.0 mi NE 6.9 mph - N/A   Clear
7:54 PM 37.4 °F 32.1 °F 35.6 °F 93% 30.14 in 4.0 mi NNE 6.9 mph - N/A   Scattered Clouds
8:13 PM 37.4 °F 31.4 °F 35.6 °F 93% 30.14 in 5.0 mi NNE 8.1 mph - N/A   Clear
8:34 PM 37.4 °F 31.4 °F 35.6 °F 93% 30.14 in 5.0 mi NNE 8.1 mph - N/A   Clear
8:54 PM 37.4 °F 31.4 °F 35.6 °F 93% 30.14 in 5.0 mi NNE 8.1 mph - N/A   Clear
9:13 PM 37.4 °F 31.4 °F 35.6 °F 93% 30.14 in 5.0 mi NNE 8.1 mph - N/A   Clear
9:34 PM 37.4 °F 32.1 °F 35.6 °F 93% 30.14 in 5.0 mi NNE 6.9 mph - N/A   Clear
9:54 PM 37.4 °F 32.1 °F 35.6 °F 93% 30.15 in 5.0 mi NNE 6.9 mph - N/A   Scattered Clouds
10:13 PM 37.4 °F 32.1 °F 35.6 °F 93% 30.15 in 5.0 mi NNE 6.9 mph - N/A   Mostly Cloudy
10:34 PM 37.4 °F 32.1 °F 35.6 °F 93% 30.15 in 7.0 mi North 6.9 mph - N/A   Mostly Cloudy
10:54 PM 37.4 °F 31.4 °F 33.8 °F 87% 30.15 in 7.0 mi North 8.1 mph - N/A   Scattered Clouds